Regional Weather Roundup
Issued by NWS Wakefield, VA

Home | Current Version | Previous Version | Text Only | Print | Product List | Glossary On
Versions: 1 2 3 4 5 6 7 8 9 10 11 12 13 14 15 16 17 18 19 20 21 22 23 24 25 26 27 28 29 30 31 32 33 34 35 36 37 38 39 40 41 42 43 44 45 46 47 48 49 50
000
ASUS41 KAKQ 290610
RWRAKQ

REGIONAL WEATHER ROUNDUP
NATIONAL WEATHER SERVICE WAKEFIELD VA
200 AM EDT FRI AUG 29 2014

Note: "fair" indicates few or no clouds below 12,000 feet with no
significant weather and/or obstructions to visibility. * = Denotes
station may not report precipitation (e.g., rain,snow,etc.),
thunder or fog.

VAZ042-051-052>054-056-290700-
NORTHERN VIRGINIA

CITY           SKY/WX    TMP DP  RH WIND       PRES   REMARKS
WASH NATIONAL  FAIR      70  53  54 NW5       30.11R
DULLES         FAIR      59  54  83 CALM      30.12R
FORT BELVOIR   FAIR      59  57  91 CALM      30.11S
QUANTICO       FAIR      65  58  78 W7        30.11S
FREDERICKSBRG* FAIR      66  59  77 CALM      30.09F
STAFFORD*      FAIR      60  60 100 CALM      30.14S
WARRENTON      FAIR      57  57 100 CALM      30.11S
CULPEPER*      FAIR     N/A N/A N/A CALM      30.12S
MANASSAS*      FAIR      59  59 100 SE7       30.11S
LEESBURG*      FAIR      64  55  72 N6        30.13R
WINCHESTER     FAIR      55  50  82 CALM      30.13S
$$

VAZ048-049-060>072-079>083-290700-
CENTRAL AND SOUTH CENTRAL VIRGINIA...AND NORTH CENTRAL NORTH CAROLINA

CITY           SKY/WX    TMP DP  RH WIND       PRES   REMARKS
RICHMOND       MOCLDY    72  60  66 N6        30.09R
CHESTERFIELD*  MOCLDY   N/A N/A N/A NE6       30.10S
PETERSBURG*    CLOUDY    74  62  66 N5        30.09R
HANOVER        FAIR      68  60  75 CALM      30.11S
TAPPAHANNOCK*  FAIR      64  59  85 CALM      30.10S
CHARLOTTSVILLE FAIR      66  55  67 NE6       30.12S
ORANGE*        FAIR      63  54  72 CALM      30.14R
LOUISA*        FAIR      66  57  72 NE3       30.11S
FARMVILLE*     FAIR      70  70 100 N7        30.07S
SOUTH HILL*    MOCLDY    72  70  94 N5        30.12R
ROANOKE RAPIDS CLOUDY    73  72  94 NE8       30.04R
RALEIGH        TSTM      75  72  88 CALM      30.03S FOG
$$

VAZ088>098-290700-
SOUTHEAST VIRGINIA

CITY           SKY/WX    TMP DP  RH WIND       PRES   REMARKS
NORFOLK        MOCLDY    76  68  76 NE7       30.05S
VIRGINIA BEACH MOCLDY    73  70  90 CALM      30.05R
NORFOLK NAVAL  MOCLDY    78  69  73 NE9       30.07R
WEST POINT*    CLOUDY    73  62  69 N5        30.09S
NEWPORT NEWS   CLOUDY    79  66  64 NE7       30.06S
LANGLEY AFB    MOCLDY    76  67  72 E12       30.05S
FORT EUSTIS    MOCLDY    76  64  67 CALM      30.05R
WILLIAMSBURG*  FAIR      73  70  88 CALM      30.08R
FRANKLIN*      CLOUDY    73  72  94 NW5       30.07R
WAKEFIELD      CLOUDY    74  70  87 CALM      30.07S
$$

VAZ020-022-025-037-045-290700-
WESTERN AND SOUTHWEST VIRGINIA

CITY           SKY/WX    TMP DP  RH WIND       PRES   REMARKS
STAUNTON*      FAIR      60  54  80 CALM      30.16S
HOT SPRINGS VA FAIR      59  51  74 E6        30.24S
LYNCHBURG      MOCLDY    69  62  78 NE7       30.12R
DANVILLE       FAIR      74  69  85 NE9       30.06R
MARTINSVILLE   MOCLDY    72  70  93 N6        30.10S
ROANOKE        FAIR      69  62  78 SE3       30.13S
BLACKSBURG     FAIR      64  64 100 CALM      30.17S
DUBLIN*        FAIR      65  64  94 CALM      30.16F
MARION*        FAIR     N/A N/A N/A CALM      30.19S HAZE
HILLSVILLE*    FAIR      67  63  86 NE3       30.17F
RICHLANDS*     FAIR      70  66  89 NE6       30.17S
WISE*          FAIR      68  64  88 CALM      30.17F
ABINGDON*      FAIR      69  66  90 E6        30.13S
$$

MDZ021>025-VAZ099-100-290700-
SOUTHERN MARYLAND AND THE DELMARVA PENINSULA

CITY           SKY/WX    TMP DP  RH WIND       PRES   REMARKS
PATUXENT RIVER FAIR      67  55  65 NE6       30.09R
BAY BRIDGE APT   N/A     68  52  56 NE9       30.10R
LEONARDTOWN    FAIR      61  55  82 CALM      30.10F
DOVER          FAIR      61  55  82 N9        30.08R
GEORGETOWN     FAIR      62  53  72 E9        30.09R
EASTON         FAIR      64  56  73 CALM      30.13R
CAMBRIDGE      FAIR      59  55  88 CALM      30.08S
SALISBURY      FAIR      62  55  77 CALM      30.08S
OCEAN CITY     FAIR      61  56  83 W3        30.07S
WALLOPS ISLAND FAIR      67  57  70 N6        30.08S
ACCOMACK*      NOT AVBL
$$

NCZ012>017-030>032-290700-
EASTERN NORTH CAROLINA

CITY           SKY/WX    TMP DP  RH WIND       PRES   REMARKS
ELIZABETH CITY FAIR      75  71  87 E6        30.05S
AHOSKIE*       FAIR      73  71  94 N7        30.05R
EDENTON*       CLOUDY    75  73  91 E5        30.04S
CURRITUCK*     FAIR      74  70  87 CALM      30.05F
KILL DEVIL HLS FAIR      76  72  87 E3        30.04S
MANTEO         CLOUDY    76  73  90 E6        30.05S
CAPE HATTERAS  FAIR      75  75 100 E5        30.04S FOG
GOLDSBORO      FAIR      76  74  96 S3        30.01S
WASHINGTON     FAIR      73  72  96 CALM      30.03S
GREENVILLE     FAIR      73  73 100 CALM      30.04S
NEW BERN       FAIR      76  69  79 SW3       30.04S
WILMINGTON     FAIR      74  69  85 S5        30.03S
$$

VAZ048-290700-
ELSEWHERE

CITY           SKY/WX    TMP DP  RH WIND       PRES   REMARKS
HARRISBURG PA  FAIR      60  50  69 N6        30.13S
BALTIMORE      FAIR      66  52  60 NE8       30.11R
ANNAPOLIS      FAIR      71  57  61 NE7       30.09R
ANDREWS AFB    FAIR      58  53  82 N3        30.10S
WILMINGTON DE  FAIR      61  49  64 N9        30.11S
PHILADELPHIA   FAIR      66  47  50 NW10      30.10F
WILDWOOD NJ*   FAIR      64  46  52 N10G16    30.09S
ATLANTIC CITY  FAIR      58  51  78 N6        30.08S
HENDERSON NC   FAIR      74  71  92 NE8       30.05S FOG
GREENSBORO     FAIR      77  69  76 N7        30.06R
ROCKY MOUNT    FAIR      74  72  93 CALM      30.02S FOG
FAYETTEVILLE   FAIR      74  68  81 S5        30.03S
CHARLOTTE      MOCLDY    78  65  63 CALM      30.05S
$$

VAZ100-290700-
MARINE

STATION/POSITION TIME  TEMP    WIND        PRES    WAVE   SWELL
                       AIR SEA DIR/SP/G            HT/PER HT/PER
                 (UTC) (F)     (DEG/KT/KT) (MB)    (FT/S) (FT/S)
44066 TX TWR #4  0600   71 72  350/ 17/ 19 1016.6R   5/11   5/11
CAPE MAY NJ      0600   68 80   10/  7/ 13 1018.0R
LEWES DE         0600   71 76   30/ 21/ 23 1018.3R
15NM E FENWICK I 0600   73 73              1017.6S   4/11
OCEAN-CITY-INLET 0600   69 76  300/  3/  4 1017.8R
WACHAPREAGUE VA  0600   70 81  340/  2/  4 1018.4S
THOMAS POINT MD  0600   71 78   50/ 20/ 22 1019.7R
GOOSES REEF MD   0600   75      40/  8/ 10 1019.2F
COVE POINT MD    0600   72      70/  7/  8 1018.6S
SOLOMONS ISLAND  0600      80                N/A
BISHOPS HEAD MD  0600   72 76   40/  7/ 10 1018.2S
PINEY POINT MD   0600           80/  4/  5   N/A
POTOMAC MD       0600   76      60/ 12/ 16 1018.0F
CAMBRIDGE MD     0600   71 80  360/  4/  5 1018.4F
LEWISETTA VA     0600   75 79   60/ 10/ 14 1018.3F
RAPPAHANNOCK LGT 0600           40/ 16/ 18 1018.8S
STINGRAY PT      0600   76      70/ 16/ 17   N/A
YORK RVR RNG VA  0600   77      80/ 14/ 15 1017.4S
YORKTOWN VA      0600   77 80   40/  8/  9 1017.6S
JAMESTOWN VA     0600   74      40/  4/  6   N/A
DOMINION TERM VA 0600   78      30/  3/  7 1017.7S
KIPTOPEKE VA     0600      81   90/  5/  7   N/A
CHES BAY BRIDGE  0600   77 78   50/ 11/ 12 1017.2R
CAPE HENRY VA    0600   77      50/ 10/ 12 1016.4F
CHESAPEAKE LGHT  0500   76      20/  2/  3 1018.4R
WILLOUBY STN VA  0600   78      70/ 10/ 11 1016.5R
S CRANEY ISL VA  0600           30/  5/  6 1017.4R
CAPE HENRY BUOY  0600      78                N/A     2/ 9   2/11
1ST LANDING BUOY 0600   78      70/ 10/ 12 1017.4S
CAPE CHARLES BUO 0600      77                N/A     3/11   3/11
OFFSHORE WE BUOY 0600      76                N/A     3/ 9   3/ 9
64NM E OF VA BCH 0600   76 75   60/  8/  8 1017.5R   5/ 9   5/ 9
DUCK PIER NC     0600   77 78  110/  6/  7 1016.8R
44056 DUCK FRF   0600                        N/A     3/10   2/11
OREGON INLET NC  0600   76 80  100/  2/  4 1017.4R
HATTERAS NC      0600   79 80   80/  3/  4 1017.5F
DIAMOND SHLS NC  0600   80     330/  2/  4 1017.3R   5/ 8   5/ 8
CAPE LOOKOUT NC  0600   80     230/  6/  8 1017.1R
$$


USA.gov is the U.S. government's official web portal to all federal, state and local government web resources and services.